Weather History for Wahpeton, ND

Change the Weather History Date:

Monday, May 14, 2012

  Actual Average (KFFM) Record (KFFM)
Temperature  
Mean Temperature 68 °F -  
Max Temperature 86 °F 66 °F 91 °F (2001)
Min Temperature 50 °F 43 °F 29 °F (1983)
Cooling Degree Days 3    
Growing Degree Days 18 (Base 50)    
Moisture  
Dew Point 36 °F    
Average Humidity 35    
Maximum Humidity 67    
Minimum Humidity 12    
Precipitation  
Precipitation 0.00 in - - ()
Sea Level Pressure  
Sea Level Pressure 29.90 in    
Wind  
Wind Speed 8 mph (West)    
Max Wind Speed 21 mph    
Max Gust Speed 31 mph    
Visibility 10 miles    
Events      
Averages and records for this station are not official NWS values.
T = Trace of Precipitation, MM = Missing Value Source: NWS Daily Summary

Daily Weather History Graph

Daily Weather History Graph

Search for Another Location

Airport:

Trip Planner

Search our weather history database for the weather conditions in past years. The results will help you decide how hot, cold, wet, or windy it might be!

Date:

Astronomy

May. 14, 2012 Rise Set
Actual Time 5:54 AM CDT 8:52 PM CDT
Civil Twilight 5:18 AM CDT 9:27 PM CDT
Nautical Twilight 4:33 AM CDT 10:12 PM CDT
Astronomical Twilight 3:39 AM CDT 11:07 PM CDT
Moon 2:48 AM CDT (5/14) 2:55 PM CDT (5/14)
Length of Visible Light 16h 08m
Length of Day
14h 58m
Waning Crescent, 32% of the Moon is Illuminated
May 14
Waning Crescent
May 20
New
May 28
First Quarter
Jun 4
Full
Jun 11
Last Quarter

Hourly Weather History & Observations

Time (CDT) Temp. Dew Point Humidity Pressure Visibility Wind Dir Wind Speed Gust Speed Precip Events Conditions
12:15 AM 60.8 °F 39.2 °F 45% 29.98 in 10.0 mi SW 10.4 mph - N/A   Clear
12:35 AM 59.0 °F 41.0 °F 51% 29.98 in 10.0 mi SW 10.4 mph - N/A   Clear
12:55 AM 55.4 °F 41.0 °F 58% 29.98 in 10.0 mi WSW 5.8 mph - N/A   Clear
1:15 AM 55.4 °F 41.0 °F 58% 29.97 in 10.0 mi WSW 8.1 mph - N/A   Clear
1:35 AM 57.2 °F 41.0 °F 55% 29.97 in 10.0 mi WSW 10.4 mph - N/A   Clear
1:55 AM 57.2 °F 41.0 °F 55% 29.97 in 10.0 mi West 9.2 mph - N/A   Clear
2:15 AM 55.4 °F 41.0 °F 58% 29.97 in 10.0 mi West 8.1 mph - N/A   Clear
2:35 AM 53.6 °F 41.0 °F 62% 29.97 in 10.0 mi West 5.8 mph - N/A   Clear
2:55 AM 53.6 °F 39.2 °F 58% 29.96 in 10.0 mi West 6.9 mph - N/A   Clear
3:15 AM 53.6 °F 41.0 °F 62% 29.96 in 10.0 mi West 6.9 mph - N/A   Clear
3:35 AM 53.6 °F 41.0 °F 62% 29.96 in 10.0 mi West 8.1 mph - N/A   Clear
3:55 AM 53.6 °F 39.2 °F 58% 29.96 in 10.0 mi West 8.1 mph - N/A   Clear
4:15 AM 53.6 °F 39.2 °F 58% 29.96 in 10.0 mi West 8.1 mph - N/A   Clear
4:35 AM 53.6 °F 39.2 °F 58% 29.96 in 10.0 mi West 9.2 mph - N/A   Clear
4:55 AM 51.8 °F 39.2 °F 62% 29.96 in 10.0 mi West 8.1 mph - N/A   Clear
5:15 AM 51.8 °F 41.0 °F 67% 29.96 in 10.0 mi West 6.9 mph - N/A   Clear
5:35 AM 50.0 °F 39.2 °F 66% 29.96 in 10.0 mi West 5.8 mph - N/A   Clear
6:35 AM 51.8 °F 39.2 °F 62% 29.97 in 10.0 mi Calm Calm - N/A   Clear
6:55 AM 53.6 °F 39.2 °F 58% 29.97 in 10.0 mi Calm Calm - N/A   Clear
7:15 AM 53.6 °F 41.0 °F 62% 29.98 in 10.0 mi Calm Calm - N/A   Clear
7:35 AM 55.4 °F 41.0 °F 58% 29.98 in 10.0 mi Calm Calm - N/A   Clear
7:55 AM 59.0 °F 41.0 °F 51% 29.98 in 10.0 mi Calm Calm - N/A   Clear
8:15 AM 59.0 °F 42.8 °F 55% 29.98 in 10.0 mi Calm Calm - N/A   Clear
8:35 AM 62.6 °F 42.8 °F 48% 29.97 in 10.0 mi WSW 4.6 mph - N/A   Clear
8:55 AM 62.6 °F 42.8 °F 48% 29.97 in 10.0 mi West 3.5 mph - N/A   Clear
9:15 AM 64.4 °F 41.0 °F 42% 29.97 in 10.0 mi WSW 4.6 mph - N/A   Clear
9:35 AM 66.2 °F 42.8 °F 43% 29.97 in 10.0 mi West 3.5 mph - N/A   Clear
9:55 AM 68.0 °F 41.0 °F 37% 29.96 in 10.0 mi West 3.5 mph - N/A   Clear
10:15 AM 69.8 °F 41.0 °F 35% 29.96 in 10.0 mi SW 4.6 mph - N/A   Clear
10:35 AM 69.8 °F 41.0 °F 35% 29.95 in 10.0 mi WSW 3.5 mph - N/A   Clear
10:55 AM 71.6 °F 39.2 °F 31% 29.95 in 10.0 mi West 3.5 mph - N/A   Clear
11:15 AM 73.4 °F 39.2 °F 29% 29.94 in 10.0 mi SW 5.8 mph - N/A   Clear
11:35 AM 77.0 °F 39.2 °F 26% 29.94 in 10.0 mi WSW 5.8 mph - N/A   Clear
11:55 AM 77.0 °F 37.4 °F 24% 29.93 in 10.0 mi South 4.6 mph - N/A   Clear
12:15 PM 78.8 °F 37.4 °F 23% 29.92 in 10.0 mi SSW 6.9 mph - N/A   Clear
12:35 PM 78.8 °F 35.6 °F 21% 29.92 in 10.0 mi SSW 6.9 mph - N/A   Clear
12:55 PM 80.6 °F 33.8 °F 18% 29.91 in 10.0 mi SW 8.1 mph - N/A   Clear
1:15 PM 80.6 °F 33.8 °F 18% 29.90 in 10.0 mi WSW 6.9 mph - N/A   Clear
1:35 PM 82.4 °F 32.0 °F 16% 29.89 in 10.0 mi WSW 6.9 mph - N/A   Clear
1:55 PM 82.4 °F 32.0 °F 16% 29.88 in 10.0 mi SW 4.6 mph 16.1 mph N/A   Clear
2:15 PM 84.2 °F 30.2 °F 14% 29.87 in 10.0 mi SW 6.9 mph 19.6 mph N/A   Clear
2:35 PM 84.2 °F 28.4 °F 13% 29.87 in 10.0 mi WNW 10.4 mph 18.4 mph N/A   Clear
2:55 PM 86.0 °F 30.2 °F 13% 29.86 in 10.0 mi West 11.5 mph 19.6 mph N/A   Clear
3:15 PM 84.2 °F 28.4 °F 13% 29.85 in 10.0 mi WNW 12.7 mph 20.7 mph N/A   Clear
3:35 PM 86.0 °F 26.6 °F 12% 29.85 in 10.0 mi WNW 12.7 mph 23.0 mph N/A   Clear
3:55 PM 86.0 °F 26.6 °F 12% 29.84 in 10.0 mi NW 13.8 mph 25.3 mph N/A   Clear
4:15 PM 86.0 °F 32.0 °F 14% 29.84 in 10.0 mi WNW 20.7 mph 31.1 mph N/A   Clear
4:35 PM 84.2 °F 32.0 °F 15% 29.83 in 10.0 mi WNW 13.8 mph - N/A   Clear
4:55 PM 82.4 °F 32.0 °F 16% 29.82 in 10.0 mi WNW 18.4 mph 24.2 mph N/A   Clear
5:15 PM 86.0 °F 32.0 °F 14% 29.82 in 10.0 mi WNW 16.1 mph 21.9 mph N/A   Clear
5:35 PM 86.0 °F 30.2 °F 13% 29.81 in 10.0 mi West 18.4 mph 26.5 mph N/A   Clear
6:15 PM 84.2 °F 28.4 °F 13% 29.82 in 10.0 mi WNW 19.6 mph 24.2 mph N/A   Clear
6:35 PM 82.4 °F 30.2 °F 15% 29.82 in 10.0 mi WNW 19.6 mph 27.6 mph N/A   Clear
6:55 PM 82.4 °F 28.4 °F 14% 29.81 in 10.0 mi WNW 18.4 mph 24.2 mph N/A   Clear
7:15 PM 80.6 °F 30.2 °F 16% 29.81 in 10.0 mi WNW 18.4 mph 26.5 mph N/A   Clear
7:35 PM 80.6 °F 28.4 °F 15% 29.81 in 10.0 mi WNW 15.0 mph - N/A   Clear
7:55 PM 78.8 °F 30.2 °F 17% 29.81 in 10.0 mi WNW 12.7 mph - N/A   Clear
8:15 PM 77.0 °F 28.4 °F 17% 29.82 in 10.0 mi NW 11.5 mph - N/A   Clear
8:35 PM 73.4 °F 30.2 °F 20% 29.82 in 10.0 mi NW 9.2 mph - N/A   Clear
8:55 PM 69.8 °F 32.0 °F 25% 29.82 in 10.0 mi NW 8.1 mph - N/A   Clear
9:15 PM 69.8 °F 30.2 °F 23% 29.82 in 10.0 mi NW 6.9 mph - N/A   Clear
9:35 PM 68.0 °F 32.0 °F 26% 29.82 in 10.0 mi NW 4.6 mph - N/A   Clear
9:55 PM 62.6 °F 32.0 °F 32% 29.83 in 10.0 mi NW 3.5 mph - N/A   Clear
10:15 PM 60.8 °F 30.2 °F 31% 29.83 in 10.0 mi WNW 4.6 mph - N/A   Clear
10:35 PM 62.6 °F 30.2 °F 30% 29.82 in 10.0 mi West 3.5 mph - N/A   Clear
10:55 PM 60.8 °F 30.2 °F 31% 29.82 in 10.0 mi Calm Calm - N/A   Clear
11:15 PM 60.8 °F 28.4 °F 29% 29.81 in 10.0 mi Calm Calm - N/A   Clear
11:35 PM 60.8 °F 30.2 °F 31% 29.80 in 10.0 mi Calm Calm - N/A   Clear
11:55 PM 59.0 °F 32.0 °F 36% 29.81 in 10.0 mi WSW 3.5 mph - N/A   Clear